ELECTRON R/B, 67223

Orbit data source: Space-Track

ELECTRON R/B, 67223 is space debris in LEO originally from a launch on Thu, 18 Dec 2025 UTC launched from the Wallops Island (WLPIS). Debris objects in space refer to the collection of defunct objects orbiting the Earth. Examples of debris include non-operational satellites, rocket bodies, and fragments generated from explosions, collisions, or faulty payload assembly.

Loading next visibility...
Identifier
67223, 2025-305E
Orbit
LEO
Country
Flag of USUS
Related business
Manufacturer
Rocket Lab
Mission
Spacecraft
Bus & Motor
KICK STAGE, CURIE
Mass
~50 kg wet, ~50 kg dry
Launch date (UTC)
2025-12-18 (4 days ago)
Launch vehicle
Unknown
Launch site
Wallops Island (WLPIS)
Object type
Payload
Rocket body
Debris
Shape & HBR
Unknown
Radar Cross Section
RCS unknown

Expand to show TLE details & history
Last TLE update: 1 day ago

TLE from 1 day ago
0 ELECTRON R/B
1 67223U 25305E   25354.25850978  .00016328  00000-0  16304-3 0  9995
2 67223  44.9975 310.0187 0179323 148.7450 212.4250 15.47983126   321
Epoch: 2025-12-20T06:12Z
TLE epoch observation values (Epoch: 2025-12-20T06:12:15.244Z)
Latitude
-0.00004°
Longitude
127.86726°
Altitude
526.169 km
Speed
7.544 km/s
True Right ascension
20h 40m 04s
True Declination
0° 00' 00"
Sunlit
Object was in daylight at epoch
Visualization orbit readout
Latitude
Unknown
Longitude
Unknown
Altitude
Unknown
Speed
Unknown
Apparent Right ascension
Unknown
Apparent Declination
Unknown
Sunlit
N/A
Visualization observer readout
Local Sidereal Time
12:15:01
Azimuth
Unknown
Elevation
Unknown
Doppler factor
Unknown
Orbital elements
Apogee altitude
546.234 km
Perigee altitude
302.269 km
Semi-major axis
6,802.388 km
Eccentricity
0.01793
Inclination
44.9975°
RAAN
310.0187°
Arg. of periapsis
148.745°
True anomaly
211.34372°
Mean anomaly
212.425°
Eccentric anomaly
211.88233°
Mean motion
3.86858 °/min
Orbital period
93.06 mins
BSTAR
0.00016304
Loading maneuver chart data...
Computing Atmospheric mass density...
Loading historical data...
Loading historical data...
Loading historical data...
Loading historical data...
Loading historical data...
Loading historical data...
Loading historical data...
Other satellites on launch #305 in the year 2025 (2025-12-18 UTC)

Documentation

Showing up to 5 results
|